OE6CUD-6 Weather Reports


time (UTC)temp
C
wind
direction
speed
KPH
gust
KPH
rain 1hr
cm
rain 24hr
cm
rain mn
cm
humidity
%
barometer
mb
20190423110205 10 0 3.2 17.7 0.00 0.05 0.05 80 1012.4
20190423105705 10 0 3.2 33.8 0.00 0.05 0.05 80 1012.5
20190423105204 10 0 3.2 33.8 0.00 0.05 0.05 80 1012.4
20190423104705 10 0 4.8 35.4 0.00 0.05 0.05 80 1012.5
20190423104205 10 0 8.0 35.4 0.00 0.05 0.05 80 1012.5
20190423103704 10 0 8.0 37.0 0.00 0.05 0.05 80 1012.5
20190423103205 10 0 6.4 48.3 0.00 0.05 0.05 80 1012.5
20190423102705 10 0 8.0 48.3 0.00 0.05 0.05 80 1012.5
20190423102205 10 0 8.0 57.9 0.00 0.05 0.05 80 1012.4
20190423101705 10 0 8.0 57.9 0.00 0.05 0.05 80 1012.4
20190423101205 10 0 9.7 57.9 0.00 0.05 0.05 80 1012.5
20190423100704 10 0 8.0 37.0 0.00 0.05 0.05 80 1012.3
20190423100204 10 0 9.7 40.2 0.00 0.05 0.05 80 1012.3
20190423095705 10 0 11.3 40.2 0.00 0.05 0.05 80 1012.3
20190423095205 10 0 9.7 40.2 0.00 0.05 0.05 80 1012.3
20190423094704 10 0 9.7 45.1 0.00 0.05 0.05 80 1012.3
20190423094204 10 0 9.7 45.1 0.00 0.05 0.05 80 1012.3
20190423093705 10 0 11.3 59.5 0.00 0.05 0.05 80 1012.2
20190423093205 10 0 12.9 59.5 0.00 0.05 0.05 80 1012.2
20190423092705 10 0 11.3 59.5 0.00 0.05 0.05 80 1012.2
20190423092205 10 0 6.4 37.0 0.00 0.05 0.05 80 1012.1
20190423091705 10 0 6.4 59.5 0.00 0.05 0.05 80 1012.0
20190423091204 10 0 9.7 59.5 0.00 0.05 0.05 80 1012.0
20190423090705 10 0 11.3 64.4 0.00 0.05 0.05 79 1012.0
20190423090205 10 0 9.7 64.4 0.00 0.05 0.05 80 1011.9
20190423085705 10 0 11.3 41.8 0.03 0.05 0.05 79 1012.0
20190423085205 10 0 12.9 48.3 0.03 0.05 0.05 79 1011.9
20190423084705 10 0 12.9 48.3 0.03 0.05 0.05 79 1011.9
20190423084205 10 0 12.9 48.3 0.03 0.05 0.05 79 1011.9
20190423083704 10 0 11.3 48.3 0.03 0.05 0.05 79 1011.8
20190423083205 10 0 8.0 33.8 0.03 0.05 0.05 79 1011.7
20190423082704 10 0 6.4 24.1 0.03 0.05 0.05 79 1011.8
20190423082205 10 0 4.8 24.1 0.03 0.05 0.05 79 1011.7
20190423081705 10 0 3.2 24.1 0.03 0.05 0.05 79 1011.6
20190423081205 11 0 1.6 24.1 0.03 0.05 0.05 79 1011.6
20190423080705 10 0 3.2 24.1 0.03 0.05 0.05 79 1011.5
20190423080205 10 0 3.2 12.9 0.03 0.05 0.05 79 1011.6
20190423075704 10 0 1.6 19.3 0.00 0.03 0.03 79 1011.6
20190423075204 10 0 3.2 20.9 0.03 0.03 0.03 79 1011.7
20190423074705 10 0 4.8 20.9 0.03 0.03 0.03 79 1011.6
20190423074205 10 0 4.8 17.7 0.03 0.03 0.03 78 1011.6
20190423073705 10 0 3.2 19.3 0.03 0.03 0.03 78 1011.7
20190423073205 10 0 4.8 20.9 0.03 0.03 0.03 78 1011.6
20190423072705 10 0 4.8 20.9 0.03 0.03 0.03 78 1011.6
20190423072205 10 0 3.2 20.9 0.03 0.03 0.03 78 1011.6
20190423071705 10 0 3.2 17.7 0.03 0.03 0.03 78 1011.6
20190423071205 10 0 4.8 17.7 0.03 0.03 0.03 78 1011.6
20190423070705 10 0 3.2 20.9 0.03 0.03 0.03 78 1011.6
20190423070205 10 0 4.8 20.9 0.03 0.03 0.03 78 1011.7
20190423065704 10 0 4.8 17.7 0.00 0.00 0.00 77 1011.7
20190423065204 11 0 4.8 14.5 0.00 0.00 0.00 77 1011.7
20190423064705 11 0 3.2 9.7 0.00 0.00 0.00 77 1011.7
20190423064205 11 0 1.6 16.1 0.00 0.00 0.00 76 1011.6
20190423063704 11 0 3.2 20.9 0.00 0.00 0.00 75 1011.6
20190423063205 11 0 3.2 20.9 0.00 0.00 0.00 75 1011.6
20190423062705 11 0 3.2 22.5 0.00 0.00 0.00 75 1011.6
20190423062205 11 0 4.8 22.5 0.00 0.00 0.00 74 1011.6
20190423061705 11 0 4.8 22.5 0.00 0.00 0.00 74 1011.7
20190423061205 11 0 1.6 17.7 0.00 0.00 0.00 74 1011.7
20190423060704 11 0 3.2 24.1 0.00 0.00 0.00 74 1011.7
20190423060205 11 0 3.2 24.1 0.00 0.00 0.00 74 1011.7
20190423055705 11 0 1.6 24.1 0.00 0.00 0.00 74 1011.7
20190423055205 11 0 1.6 25.7 0.00 0.00 0.00 74 1011.7
20190423054704 11 0 3.2 25.7 0.00 0.00 0.00 74 1011.6
20190423054204 11 0 3.2 25.7 0.00 0.00 0.00 74 1011.6
20190423053705 11 0 3.2 19.3 0.00 0.00 0.00 74 1011.6
20190423053205 11 0 1.6 14.5 0.00 0.00 0.00 74 1011.6
20190423052705 11 0 0.0 16.1 0.00 0.00 0.00 73 1011.5
20190423052204 11 0 1.6 30.6 0.00 0.00 0.00 73 1011.4
20190423051705 11 0 3.2 30.6 0.00 0.00 0.00 73 1011.5
20190423051205 11 0 4.8 30.6 0.00 0.00 0.00 73 1011.4
20190423050706 11 0 1.6 12.9 0.00 0.00 0.00 73 1011.5
20190423050205 11 0 3.2 16.1 0.00 0.00 0.00 73 1011.5
20190423045704 11 0 4.8 35.4 0.00 0.00 0.00 72 1011.5
20190423045204 11 0 4.8 35.4 0.00 0.00 0.00 72 1011.5
20190423044705 11 0 4.8 17.7 0.00 0.00 0.00 73 1011.6
20190423044204 10 0 1.6 17.7 0.00 0.00 0.00 73 1011.5
20190423043705 10 0 1.6 6.4 0.00 0.00 0.00 72 1011.4
20190423043205 10 0 0.0 0.0 0.00 0.00 0.00 73 1011.4
20190423042705 10 0 0.0 0.0 0.00 0.00 0.00 73 1011.3
20190423042205 10 0 0.0 3.2 0.00 0.00 0.00 73 1011.2
20190423041705 10 0 0.0 11.3 0.00 0.00 0.00 73 1011.2
20190423041205 11 0 0.0 11.3 0.00 0.00 0.00 72 1011.1
20190423040705 11 0 1.6 11.3 0.00 0.00 0.00 71 1011.1
20190423040205 11 0 1.6 9.7 0.00 0.00 0.00 71 1011.1
20190423035705 11 0 1.6 9.7 0.00 0.00 0.00 71 1010.9
20190423035205 11 0 1.6 9.7 0.00 0.00 0.00 71 1010.9
20190423034705 10 0 0.0 0.0 0.00 0.00 0.00 71 1011.1
20190423034205 10 0 0.0 0.0 0.00 0.00 0.00 71 1011.1
20190423033705 10 0 0.0 4.8 0.00 0.00 0.00 71 1011.1
20190423033205 10 0 0.0 12.9 0.00 0.00 0.00 71 1011.1
20190423032705 11 0 1.6 29.0 0.00 0.00 0.00 70 1011.1
20190423032205 11 0 1.6 38.6 0.00 0.00 0.00 70 1011.1
20190423031705 11 0 1.6 38.6 0.00 0.00 0.00 70 1011.2
20190423031205 10 0 1.6 8.0 0.00 0.00 0.00 70 1011.1
20190423030705 10 0 1.6 20.9 0.00 0.00 0.00 70 1011.2
20190423030205 11 0 0.0 20.9 0.00 0.00 0.00 70 1011.2
20190423025705 11 0 1.6 20.9 0.00 0.00 0.00 70 1011.3
20190423025205 11 0 0.0 8.0 0.00 0.00 0.00 70 1011.3
20190423024704 11 0 0.0 24.1 0.00 0.00 0.00 69 1011.3
20190423024205 11 0 1.6 24.1 0.00 0.00 0.00 69 1011.3
20190423023704 11 0 1.6 16.1 0.00 0.00 0.00 69 1011.3
20190423023206 11 0 3.2 16.1 0.00 0.00 0.00 68 1011.3
20190423022705 11 0 3.2 22.5 0.00 0.00 0.00 69 1011.4
20190423022205 11 0 1.6 22.5 0.00 0.00 0.00 68 1011.4
20190423021705 11 0 1.6 22.5 0.00 0.00 0.00 68 1011.5
20190423021205 11 0 0.0 11.3 0.00 0.00 0.00 68 1011.6
20190423020704 11 0 0.0 11.3 0.00 0.00 0.00 67 1011.6
20190423020205 11 0 1.6 35.4 0.00 0.00 0.00 67 1011.7
20190423015705 11 0 3.2 35.4 0.00 0.00 0.00 66 1011.8
20190423015205 11 0 3.2 35.4 0.00 0.00 0.00 66 1011.8
20190423014705 11 0 3.2 32.2 0.00 0.00 0.00 66 1011.8
20190423014205 11 0 4.8 24.1 0.00 0.00 0.00 66 1011.7
20190423013704 11 0 4.8 25.7 0.00 0.00 0.00 66 1011.7
20190423013205 11 0 4.8 25.7 0.00 0.00 0.00 66 1011.8
20190423012705 11 0 3.2 25.7 0.00 0.00 0.00 66 1011.9
20190423012205 11 0 4.8 25.7 0.00 0.00 0.00 67 1012.0
20190423011704 11 0 3.2 22.5 0.00 0.00 0.00 66 1011.9
20190423011205 11 0 0.0 48.3 0.00 0.00 0.00 66 1011.9
20190423010705 11 0 3.2 48.3 0.00 0.00 0.00 65 1011.9
20190423005705 11 0 6.4 37.0 0.00 0.00 0.00 65 1011.9
20190423005205 12 0 4.8 37.0 0.00 0.00 0.00 64 1011.8
20190423004705 12 0 4.8 32.2 0.00 0.00 0.00 64 1011.8
20190423004204 12 0 4.8 32.2 0.00 0.00 0.00 63 1011.9
20190423003705 12 0 8.0 35.4 0.00 0.00 0.00 63 1012.0
20190423003205 12 0 12.9 37.0 0.00 0.00 0.00 63 1012.0
20190423002704 12 0 12.9 37.0 0.00 0.00 0.00 63 1012.0
20190423002205 12 0 8.0 33.8 0.00 0.00 0.00 63 1012.0
20190423001705 12 0 3.2 20.9 0.00 0.00 0.00 63 1012.0
20190423001205 12 0 4.8 25.7 0.00 0.00 0.00 63 1011.9
20190423000705 12 0 6.4 25.7 0.00 0.00 0.00 62 1012.1
20190423000205 12 0 4.8 25.7 0.00 0.00 0.00 62 1012.1
20190422235705 13 0 4.8 35.4 0.00 0.00 0.00 62 1012.1
20190422235205 13 0 6.4 35.4 0.00 0.00 0.00 62 1012.1
20190422234704 13 0 6.4 35.4 0.00 0.00 0.00 62 1012.1
20190422234204 13 0 4.8 25.7 0.00 0.00 0.00 62 1012.1
20190422233705 13 0 3.2 25.7 0.00 0.00 0.00 62 1012.1
20190422233205 13 0 4.8 20.9 0.00 0.00 0.00 62 1012.1
20190422232705 13 0 4.8 20.9 0.00 0.00 0.00 62 1012.1
20190422232205 13 0 4.8 19.3 0.00 0.00 0.00 62 1012.1
20190422231705 13 0 4.8 19.3 0.00 0.00 0.00 62 1012.1
20190422231205 13 0 4.8 30.6 0.00 0.00 0.00 61 1012.1
20190422230704 13 0 6.4 30.6 0.00 0.00 0.00 61 1012.0
20190422230205 13 0 8.0 35.4 0.00 0.00 0.00 61 1012.0
20190422225705 13 0 8.0 35.4 0.00 0.00 0.00 61 1012.0
20190422225204 13 0 8.0 35.4 0.00 0.00 0.00 61 1012.0
20190422224704 13 0 6.4 59.5 0.00 0.00 0.00 61 1012.1
20190422224204 13 0 9.7 59.5 0.00 0.00 0.00 60 1012.1
20190422223705 13 0 11.3 59.5 0.00 0.00 0.00 60 1012.1
20190422223205 13 0 6.4 41.8 0.00 0.00 0.00 60 1012.2
20190422222705 13 0 6.4 41.8 0.00 0.00 0.00 62 1012.1
20190422222205 13 0 8.0 48.3 0.00 0.00 0.00 60 1012.2
20190422221704 13 0 8.0 48.3 0.00 0.00 0.00 60 1012.0
20190422221205 13 0 9.7 37.0 0.00 0.00 0.00 59 1012.0
20190422220705 13 0 8.0 32.2 0.00 0.00 0.00 59 1012.2
20190422220205 13 0 8.0 32.2 0.00 0.00 0.00 60 1012.2
20190422215705 13 0 6.4 38.6 0.00 0.00 0.00 60 1012.2
20190422215205 14 0 6.4 46.7 0.00 0.00 0.00 60 1012.2
20190422214704 14 0 6.4 46.7 0.00 0.00 0.00 59 1012.2
20190422214205 14 0 11.3 46.7 0.00 0.00 0.00 59 1012.2
20190422213705 14 0 14.5 48.3 0.00 0.00 0.00 58 1012.2
20190422213205 15 0 11.3 48.3 0.00 0.00 0.00 58 1012.3
20190422212704 15 0 9.7 48.3 0.00 0.00 0.00 58 1012.3
20190422212205 15 0 8.0 46.7 0.00 0.00 0.00 59 1012.2
20190422211705 15 0 9.7 45.1 0.00 0.00 0.00 59 1012.2
20190422211205 15 0 8.0 59.5 0.00 0.00 0.00 59 1012.1
20190422210705 15 0 8.0 59.5 0.00 0.00 0.00 59 1012.0
20190422210205 15 0 6.4 30.6 0.00 0.00 0.00 59 1012.0
20190422205705 15 0 3.2 30.6 0.00 0.00 0.00 59 1012.0
20190422205205 15 0 3.2 30.6 0.00 0.00 0.00 59 1012.0
20190422204705 14 0 1.6 27.4 0.00 0.00 0.00 61 1011.9
20190422204204 15 0 0.0 6.4 0.00 0.00 0.00 60 1011.8
20190422203705 15 0 0.0 6.4 0.00 0.00 0.00 60 1011.7
20190422203205 15 0 0.0 12.9 0.00 0.00 0.00 59 1011.7
20190422202704 15 0 1.6 12.9 0.00 0.00 0.00 59 1011.7
20190422202205 15 0 3.2 12.9 0.00 0.00 0.00 58 1011.5
20190422201705 15 0 1.6 17.7 0.00 0.00 0.00 59 1011.6
20190422201205 15 0 3.2 33.8 0.00 0.00 0.00 58 1011.6
20190422200704 15 0 4.8 33.8 0.00 0.00 0.00 58 1011.4
20190422200205 16 0 3.2 33.8 0.00 0.00 0.00 58 1011.5
20190422195705 16 0 1.6 17.7 0.00 0.00 0.00 59 1011.5
20190422195204 16 0 0.0 14.5 0.00 0.00 0.00 57 1011.5
20190422194705 16 0 0.0 14.5 0.00 0.00 0.00 57 1011.6
20190422194205 16 0 1.6 30.6 0.00 0.00 0.00 56 1011.5
20190422193705 16 0 3.2 30.6 0.00 0.00 0.00 55 1011.5
20190422193204 16 0 6.4 53.1 0.00 0.00 0.00 55 1011.4
20190422192705 17 0 9.7 53.1 0.00 0.00 0.00 55 1011.3
20190422192205 17 0 9.7 53.1 0.00 0.00 0.00 54 1011.3
20190422191704 17 0 8.0 53.1 0.00 0.00 0.00 54 1011.2
20190422191205 17 0 17.7 53.1 0.00 0.00 0.00 53 1011.2
20190422190705 17 0 17.7 53.1 0.00 0.00 0.00 52 1011.1
20190422190205 17 0 8.0 53.1 0.00 0.00 0.00 51 1011.1
20190422185705 18 0 14.5 53.1 0.00 0.00 0.00 50 1010.9
20190422185205 18 0 19.3 69.2 0.00 0.00 0.00 49 1010.8
20190422184705 18 0 20.9 69.2 0.00 0.00 0.00 48 1010.7
20190422184205 18 0 24.1 62.8 0.00 0.00 0.00 48 1010.5
20190422183704 18 0 22.5 62.8 0.00 0.00 0.00 48 1010.4
20190422183205 18 0 19.3 62.8 0.00 0.00 0.00 48 1010.3
20190422182704 18 0 17.7 51.5 0.00 0.00 0.00 48 1010.2
20190422182205 18 0 22.5 51.5 0.00 0.00 0.00 47 1010.1
20190422181705 19 0 24.1 56.3 0.00 0.00 0.00 47 1010.0
20190422181205 19 0 22.5 56.3 0.00 0.00 0.00 47 1009.9
20190422180705 19 0 19.3 56.3 0.00 0.00 0.00 46 1009.9
20190422180205 19 0 17.7 64.4 0.00 0.00 0.00 46 1009.8
20190422175705 19 0 19.3 64.4 0.00 0.00 0.00 45 1009.8
20190422175205 19 0 16.1 40.2 0.00 0.00 0.00 45 1009.8
20190422174705 19 0 9.7 27.4 0.00 0.00 0.00 44 1009.8
20190422174205 19 0 6.4 38.6 0.00 0.00 0.00 41 1009.7
20190422173705 20 0 4.8 40.2 0.00 0.00 0.00 38 1009.7
20190422173205 20 0 6.4 43.5 0.00 0.00 0.00 37 1009.7
20190422172705 20 0 9.7 43.5 0.00 0.00 0.00 37 1009.6
20190422172205 20 0 11.3 48.3 0.00 0.00 0.00 36 1009.6
20190422171705 20 0 9.7 53.1 0.00 0.00 0.00 36 1009.5
20190422171205 21 0 16.1 72.4 0.00 0.00 0.00 36 1009.5
20190422170705 21 349 24.1 72.4 0.00 0.00 0.00 35 1009.5
20190422170205 21 0 29.0 72.4 0.00 0.00 0.00 35 1009.6
20190422165705 21 0 27.4 57.9 0.00 0.00 0.00 35 1009.5
20190422165205 21 0 20.9 56.3 0.00 0.00 0.00 35 1009.5
20190422164704 21 0 20.9 69.2 0.00 0.00 0.00 35 1009.4
20190422164204 21 0 24.1 69.2 0.00 0.00 0.00 35 1009.4
20190422163705 22 0 22.5 69.2 0.00 0.00 0.00 35 1009.3
20190422163205 22 0 14.5 53.1 0.00 0.00 0.00 35 1009.3
20190422162704 22 0 14.5 57.9 0.00 0.00 0.00 36 1009.3
20190422162204 22 0 24.1 74.0 0.00 0.00 0.00 35 1009.3
20190422161705 22 0 27.4 74.0 0.00 0.00 0.00 35 1009.3
20190422161204 22 0 30.6 74.0 0.00 0.00 0.00 35 1009.3
20190422160705 22 0 33.8 62.8 0.00 0.00 0.00 35 1009.3
20190422160205 22 0 32.2 67.6 0.00 0.00 0.00 36 1009.3
20190422155705 22 0 30.6 67.6 0.00 0.00 0.00 36 1009.3
20190422155205 22 0 25.7 67.6 0.00 0.00 0.00 36 1009.3
20190422154705 23 0 27.4 61.2 0.00 0.00 0.00 37 1009.4
20190422154204 22 0 27.4 64.4 0.00 0.00 0.00 38 1009.4
20190422153705 22 0 29.0 64.4 0.00 0.00 0.00 37 1009.4
20190422153205 23 0 20.9 49.9 0.00 0.00 0.00 36 1009.4
20190422152705 23 0 12.9 48.3 0.00 0.00 0.00 37 1009.4
20190422152205 23 0 14.5 70.8 0.00 0.00 0.00 37 1009.4
20190422151705 23 0 17.7 70.8 0.00 0.00 0.00 38 1009.5
20190422151205 23 0 12.9 70.8 0.00 0.00 0.00 37 1009.4
20190422150704 23 0 9.7 51.5 0.00 0.00 0.00 38 1009.5
20190422150205 23 0 17.7 66.0 0.00 0.00 0.00 37 1009.5
20190422145705 23 0 14.5 66.0 0.00 0.00 0.00 38 1009.6
20190422145205 23 0 17.7 66.0 0.00 0.00 0.00 37 1009.6
20190422144706 23 0 20.9 62.8 0.00 0.00 0.00 38 1009.8
20190422144205 23 0 14.5 57.9 0.00 0.00 0.00 38 1009.8
20190422143704 23 0 9.7 49.9 0.00 0.00 0.00 37 1009.9
20190422143205 23 0 8.0 49.9 0.00 0.00 0.00 38 1009.9
20190422142705 23 0 9.7 57.9 0.00 0.00 0.00 38 1010.0
20190422142205 23 0 9.7 57.9 0.00 0.00 0.00 38 1010.0
20190422141705 23 0 11.3 45.1 0.00 0.00 0.00 38 1010.1
20190422141205 23 0 12.9 45.1 0.00 0.00 0.00 37 1010.0
20190422140704 23 0 9.7 45.1 0.00 0.00 0.00 38 1010.1
20190422140205 23 0 6.4 45.1 0.00 0.00 0.00 37 1010.1
20190422135705 23 0 4.8 45.1 0.00 0.00 0.00 38 1010.1
20190422135205 23 0 8.0 49.9 0.00 0.00 0.00 37 1010.1
20190422134705 23 0 9.7 49.9 0.00 0.00 0.00 37 1010.1
20190422134205 23 0 9.7 49.9 0.00 0.00 0.00 38 1010.2
20190422133705 23 0 6.4 69.2 0.00 0.00 0.00 38 1010.2
20190422133204 23 0 12.9 69.2 0.00 0.00 0.00 39 1010.3
20190422132705 22 0 16.1 48.3 0.00 0.00 0.00 38 1010.3
20190422132205 22 0 16.1 46.7 0.00 0.00 0.00 39 1010.5
20190422131705 23 0 17.7 46.7 0.00 0.00 0.00 38 1010.4
20190422131205 22 0 12.9 45.1 0.00 0.00 0.00 40 1010.5
20190422130705 22 0 11.3 45.1 0.00 0.00 0.00 38 1010.5
20190422130205 22 0 8.0 48.3 0.00 0.00 0.00 39 1010.5
20190422125705 23 0 9.7 48.3 0.00 0.00 0.00 39 1010.6
20190422125205 23 0 12.9 37.0 0.00 0.00 0.00 37 1010.7
20190422124705 22 0 6.4 48.3 0.00 0.00 0.00 37 1010.8
20190422124205 22 0 8.0 48.3 0.00 0.00 0.00 40 1010.8
20190422123705 23 0 11.3 48.3 0.00 0.00 0.00 36 1010.9
20190422123205 23 0 8.0 48.3 0.00 0.00 0.00 41 1010.9
20190422122705 23 0 11.3 48.3 0.00 0.00 0.00 39 1011.1
20190422122205 22 0 16.1 70.8 0.00 0.00 0.00 38 1011.2
20190422121704 23 0 19.3 70.8 0.00 0.00 0.00 39 1011.2
20190422121204 22 0 22.5 69.2 0.00 0.00 0.00 39 1011.3
20190422120705 22 0 19.3 69.2 0.00 0.00 0.00 39 1011.2
20190422120205 22 0 12.9 54.7 0.00 0.00 0.00 39 1011.3
20190422115704 22 0 17.7 56.3 0.00 0.00 0.00 39 1011.3
20190422115205 22 0 20.9 56.3 0.00 0.00 0.00 39 1011.3
20190422114705 22 0 19.3 51.5 0.00 0.00 0.00 39 1011.5
20190422114205 22 0 20.9 45.1 0.00 0.00 0.00 40 1011.4
20190422113705 22 0 17.7 56.3 0.00 0.00 0.00 39 1011.5
20190422113205 22 0 16.1 56.3 0.00 0.00 0.00 40 1011.5
20190422112705 22 0 17.7 62.8 0.00 0.00 0.00 39 1011.6
20190422112205 22 0 16.1 62.8 0.00 0.00 0.00 39 1011.7
20190422111705 22 0 11.3 62.8 0.00 0.00 0.00 41 1011.7
20190422111205 22 0 9.7 64.4 0.00 0.00 0.00 39 1011.7
20190422110705 22 0 17.7 64.4 0.00 0.00 0.00 39 1011.7